Showing default

FLYLAB 1, 68472

Orbit data source: Space-Track

FLYLAB 1, 68472 is a payload satellite owned by ONERA (FR) in SSO that was launched on Mon, 30 Mar 2026 UTC via an FALCON 9 launch vehicle from the Air Force Western Test Range (AFWTR). Payload-class satellites include a variety of spacecraft equipped with specific instruments for various scientific and technological missions. These include communications satellites like Starlink; space stations such as the ISS; scientific satellites like the Hubble; Earth observation satellites from companies like Planet Labs, Umbra, and HawkEye 360; GPS; miniature CubeSats for education and research; and military/defense satellites.

Loading next visibility...
Identifier
68472, 2026-067BJ
Orbit
SSO
Country
Flag of FRFR
Related business
Manufacturer
NanoAvionics
Mission
Operational spacecraft
Bus & Motor
CUBESAT 8U, Unknown motor
Mass
15 kg wet, ~15 kg dry
Launch date (UTC)
2026-03-30 (3 months ago)
Launch vehicle
FALCON 9
Launch site
Air Force Western Test Range (AFWTR)
Object type
Payload
Rocket body
Debris
Shape & HBR
Unknown shape, 14.5 m
Radar Cross Section
Medium (>0.1 m² and <1 m²)

Expand to show TLE details & history
Last TLE update: 11 hours ago

TLE from 11 hours ago
0 FLYLAB 1
1 68472U 26067BJ  26171.38477755  .00001753  00000-0  18322-3 0  9996
2 68472  97.7630 129.5052 0005374  45.7184 314.4475 14.90920394 12207
Epoch: 2026-06-20T09:14Z
TLE epoch observation values (Epoch: 2026-06-20T09:14:04.780Z)
Latitude
0.00005°
Longitude
82.38511°
Altitude
595.481 km
Speed
7.564 km/s
True Right ascension
08h 38m 01s
True Declination
0° 00' 00"
Sunlit
Object was in daylight at epoch
Visualization orbit readout
Latitude
Unknown
Longitude
Unknown
Altitude
Unknown
Speed
Unknown
Apparent Right ascension
Unknown
Apparent Declination
Unknown
Sunlit
N/A
Visualization observer readout
Local Sidereal Time
07:13:30
Azimuth
Unknown
Elevation
Unknown
Doppler factor
Unknown
Orbital elements
Apogee altitude
595.83 km
Perigee altitude
588.339 km
Semi-major axis
6,970.222 km
Eccentricity
0.00054
Inclination
97.763°
RAAN
129.5052°
Arg. of periapsis
45.7184°
True anomaly
314.40352°
Mean anomaly
314.4475°
Eccentric anomaly
314.42551°
Mean motion
3.72969 °/min
Orbital period
96.52 mins
BSTAR
0.00018322
Loading maneuver chart data...
Computing Atmospheric mass density...
Loading historical data...
Loading historical data...
Loading historical data...
Loading historical data...
Loading historical data...
Loading historical data...
Loading historical data...

Documentation

Showing up to 5 results
|